DW7571 Weather Reports


time (UTC)temp
C
wind
direction
speed
KPH
gust
KPH
rain 1hr
cm
rain 24hr
cm
rain mn
cm
humidity
%
barometer
mb
20260503050401 2 223 3.2 4.8 0.00 0.00 0.00 60 1015.6
20260503044902 3 238 3.2 3.2 0.00 0.00 0.00 59 1015.9
20260503043401 3 218 3.2 4.8 0.00 0.00 0.00 58 1015.9
20260503041902 3 238 3.2 3.2 0.00 0.00 0.00 57 1015.9
20260503040401 3 246 3.2 4.8 0.00 0.00 0.00 57 1015.9
20260503035402 3 226 6.4 6.4 0.00 0.00 0.00 59 1015.9
20260503033901 2 228 1.6 3.2 0.00 0.00 0.00 59 1015.9
20260503032401 3 249 3.2 3.2 0.00 0.00 0.00 59 1016.3
20260503030902 3 206 0.0 3.2 0.00 0.00 0.00 59 1016.3
20260503025401 3 209 0.0 3.2 0.00 0.00 0.00 58 1016.3
20260503022402 4 209 0.0 0.0 0.00 0.00 0.00 55 1016.3
20260503020901 5 208 0.0 0.0 0.00 0.00 0.00 52 1016.3
20260503015401 5 230 3.2 3.2 0.00 0.00 0.00 50 1016.3
20260503013902 6 241 3.2 4.8 0.00 0.00 0.00 48 1016.3
20260503012901 6 218 3.2 4.8 0.00 0.00 0.00 47 1015.9
20260503011402 6 225 3.2 6.4 0.00 0.00 0.00 46 1015.9
20260503003902 7 276 6.4 11.3 0.00 0.00 0.00 43 1015.9
20260503002402 8 233 3.2 9.7 0.00 0.00 0.00 44 1015.6
20260503001401 8 296 6.4 9.7 0.00 0.00 0.00 41 1015.6
20260502235902 9 322 6.4 9.7 0.00 0.00 0.00 40 1015.6
20260502234401 8 294 6.4 11.3 0.00 0.00 0.00 41 1015.6
20260502232901 8 220 4.8 11.3 0.00 0.00 0.00 43 1015.9
20260502225901 8 328 3.2 9.7 0.00 0.00 0.00 42 1015.9
20260502224401 9 227 4.8 12.9 0.00 0.00 0.00 41 1015.9
20260502221402 8 319 9.7 12.9 0.00 0.00 0.00 41 1015.9
20260502215902 8 329 8.0 11.3 0.00 0.00 0.00 43 1015.9
20260502214401 8 251 6.4 11.3 0.00 0.00 0.00 45 1015.9
20260502212901 8 35 4.8 12.9 0.00 0.00 0.00 45 1015.9
20260502211401 8 8 4.8 11.3 0.00 0.00 0.00 43 1016.3
20260502205901 9 311 8.0 17.7 0.00 0.00 0.00 43 1016.3
20260502204402 8 301 12.9 14.5 0.00 0.00 0.00 43 1016.3
20260502202902 9 302 8.0 14.5 0.00 0.00 0.00 41 1016.3
20260502201401 9 313 9.7 14.5 0.00 0.00 0.00 40 1016.6
20260502195902 8 318 6.4 11.3 0.00 0.00 0.00 42 1016.6
20260502194402 9 326 11.3 16.1 0.00 0.00 0.00 40 1016.9
20260502191902 8 296 16.1 17.7 0.00 0.00 0.00 41 1017.3
20260502190402 8 309 11.3 16.1 0.00 0.00 0.00 39 1017.3
20260502184901 10 0 9.7 16.1 0.00 0.00 0.00 38 1017.3
20260502180401 8 314 11.3 19.3 0.00 0.00 0.00 41 1017.6
20260502170402 8 354 8.0 12.9 0.00 0.00 0.00 41 1017.9
20260502161902 8 265 6.4 14.5 0.00 0.00 0.00 41 1018.3
20260502160401 6 270 11.3 12.9 0.00 0.00 0.00 45 1018.3
20260502150902 7 335 11.3 14.5 0.00 0.00 0.00 47 1018.3
20260502123401 2 217 3.2 6.4 0.00 0.00 0.00 74 1018.3
20260502121901 2 310 4.8 8.0 0.00 0.00 0.00 75 1017.9
20260502113901 0 286 3.2 8.0 0.00 0.00 0.00 82 1017.9
20260502112402 0 315 4.8 4.8 0.00 0.00 0.00 84 1017.9
20260502110901 0 329 3.2 4.8 0.00 0.00 0.00 84 1017.6
20260502105402 0 292 3.2 4.8 0.00 0.00 0.00 84 1017.6
20260502103902 0 266 3.2 6.4 0.00 0.00 0.00 84 1017.6
20260502102901 0 294 4.8 4.8 0.00 0.00 0.00 83 1017.6
20260502101402 0 299 4.8 6.4 0.00 0.00 0.00 82 1017.6
20260502091402 0 261 4.8 6.4 0.00 0.00 0.00 78 1017.3
20260502070901 2 303 4.8 9.7 0.00 0.00 0.00 68 1016.6
20260502065402 2 307 4.8 6.4 0.00 0.00 0.00 67 1016.9
20260502063901 3 244 4.8 9.7 0.00 0.00 0.00 67 1016.9
20260502062402 3 265 9.7 9.7 0.00 0.00 0.00 66 1016.9
20260502054402 3 241 4.8 6.4 0.00 0.00 0.00 64 1017.3
20260502053401 3 257 3.2 4.8 0.00 0.00 0.00 64 1017.3
20260502052201 3 264 6.4 6.4 0.00 0.00 0.00 64 1017.3